Regional Weather Roundup
Issued by NWS Bismarck, ND

Home | Current Version | Previous Version | Text Only | Print | Product List | Glossary On
Versions: 1 2 3 4 5 6 7 8 9 10 11 12 13 14 15 16 17 18 19 20 21 22 23 24 25 26 27 28 29 30 31 32 33 34 35 36 37 38 39 40 41 42 43 44 45 46 47 48 49 50
000
ASUS43 KBIS 250020
RWRBIS

NWR BROADCAST TEXT
NATIONAL WEATHER SERVICE BISMARCK ND
600 PM CST WED DEC 24 2014

NOTE: "FAIR" INDICATES FEW OR NO CLOUDS BELOW 12,000 FEET WITH NO
SIGNIFICANT WEATHER AND/OR OBSTRUCTIONS TO VISIBILITY.


CITY           SKY/WX    TMP DP  RH WIND       PRES   REMARKS
WILLISTON      PTCLDY    30  24  78 N5        29.48R
MINOT          PTCLDY    32  27  81 W15       29.43R
MINOT AFB      PTCLDY    27  27  99 W10       29.42S WCI  17
BISMARCK       CLOUDY    31  28  89 E3        29.47S
DICKINSON      CLOUDY    35  31  85 NW9       29.44F
GARRISON         N/A     34  30  85 NW8       29.44R
HETTINGER ARPT CLOUDY    34  28  79 NW7       29.47S
JAMESTOWN      CLOUDY    30  25  81 S10       29.45F
BEACH          CLOUDY    32  32 100 W7        29.49R
CARRINGTON     CLOUDY    28  28 100 MISG      29.43F
CROSBY         FAIR      25  25 100 W8        29.47S WCI  16
HARVEY         FAIR      25  25 100 SW9       29.43S WCI  15
HAZEN          CLOUDY    34  32  93 W8        29.46S
LINTON         CLOUDY    27  27 100 S12       29.48S WCI  16
MANDAN         CLOUDY    36  32  87 W9        29.47R
OAKES            N/A     27  27 100 S16G22    29.52S WCI  14
RUGBY          FAIR      25  25 100 SW12      29.40F WCI  14
STANLEY        FAIR      27  27 100 NW7       29.45R WCI  19
TIOGA          FAIR      25  25 100 W9        29.48S WCI  15
WATFORD CITY   FAIR      32  28  86 W3        29.46R
$$

CITY           SKY/WX    TMP DP  RH WIND       PRES   REMARKS
GRAND FORKS    CLOUDY    27  25  92 S16       29.50F WCI  15
GRAND FORKS AF CLOUDY    28  28 100 S10       29.49F WCI  18
DEVILS LAKE    MOCLDY    28  25  86 SW9       29.41F WCI  20
FARGO          CLOUDY    29  25  85 MISG      29.54F
CANDO          FAIR      25  23  93 CALM      29.40F
CAVALIER       MIX PCPN  27  27 100 S14G20    29.44F WCI  15
GWINNER        CLOUDY    30  30 100 S9G17     29.52F
LANGDON        CLOUDY    27  27 100 SW14      29.40S WCI  15
ROLLA          FAIR      25  25 100 SW3       29.38S
WALHALLA         N/A     28  28 100 S10       29.44S WCI  19
$$

CITY           SKY/WX    TMP DP  RH WIND       PRES   REMARKS
ABERDEEN       CLOUDY    28  25  88 S12       29.56F WCI  18
MOBRIDGE       CLOUDY    26  21  81 S8        29.47F WCI  18
BUFFALO          N/A     37  28  70 W8        29.40F
RAPID CITY     CLOUDY    35  25  66 E5        29.46F
GLASGOW        MOCLDY    33  28  81 N6        29.51S
SIDNEY         CLOUDY    36  28  75 CALM      29.51R
WOLF POINT     CLOUDY    35  31  85 SW5       29.51S
GLENDIVE       CLOUDY    36  32  87 NW7       29.50S
MILES CITY     LGT RAIN  35  31  85 N8        29.47F
BAKER          CLOUDY    33  30  88 NW6       29.47S
$$

CITY           SKY/WX    TMP DP  RH WIND       PRES   REMARKS
BILLINGS       CLOUDY    40  18  41 SW13      29.42S
GREAT FALLS    SNOW      31  31 100 N9        29.50R VSB 1/2
REGINA         MOCLDY    23  21  93 W12       29.44S WCI  12
ESTEVAN        MOCLDY    25  21  86 W10       29.44S WCI  15
$$



USA.gov is the U.S. government's official web portal to all federal, state and local government web resources and services.